sat.trackr.live / text

‹ back to catalog

HAWK-5A

NORAD 52757 · 2022-057AB

PAYLOAD ACTIVE UNKNOWN

§ Identity

Operator
Country
US
Launch date
2022-05-25
Launch site
AFETR
Launch vehicle
Mass (kg)
RCS (m²)

Purposes: tech_demo

External: N2YO · Heavens-Above · Gunter

§ Orbital elements

Epoch: 2026-09-19T21:28:25.006368Z

Period
92.64 min
Inclination
97.6695°
Eccentricity
0.0005292
Mean motion
15.54432956 rev/d
Perigee alt
400.2 km
Apogee alt
407.4 km
Semi-major
6,781.9 km
B*
2.2809e-4
RAAN
68.1484°
Arg perigee
84.2369°
Mean anomaly
275.9487°
Rev number
24,104

§ Raw data

HAWK-5A1 52757U 22057AB  26262.89473387  .00014887  00000+0  22809-3 0  99902 52757  97.6695  68.1484 0005292  84.2369 275.9487 15.54432956241048

JSON: /api/v1/satellites/52757 · /tle

For live sub-satellite position, see the globe view (requires WebGL).

§ Visibility from observer

Set your observer location to see the next 7 days of passes ≥ 10°. The values pass through the URL so the page stays shareable.

No JS? Fill the form by hand. The geolocation button needs JavaScript.